Simultaneous Nadir Overpasses (SNOs) Predictions

Prediction of SNOs between LANDSAT-8 and METOP-B Satellite Orbit:

Table of predicted SNOs for the next 14.0 days since TLE Epoch: 4/3/2021
Index Date (LANDSAT-8) Time (LANDSAT-8) Lat,Lon (LANDSAT-8) SZA (LANDSAT-8 ) Date (METOP-B) Time (METOP-B) Lat,Lon (METOP-B) SZA (METOP-B ) Distance(km) Time Diff (sec)
1 04/05/2021 13:41:59 -81.14,-165.81 103.18 04/05/2021 13:41:43 -81.14,-165.73 103.18 1.31 16
2 04/05/2021 14:31:24 81.17, 2.27 76.88 04/05/2021 14:32:22 81.16, 2.35 76.91 1.39 58
3 04/08/2021 09:16:14 -81.12, -99.62 104.25 04/08/2021 09:16:05 -81.12, -99.79 104.27 2.87 9
4 04/08/2021 10:05:39 81.15, 68.42 75.80 04/08/2021 10:06:44 81.15, 68.29 75.82 2.37 65
5 04/11/2021 04:50:28 -81.13, -33.10 105.26 04/11/2021 04:50:25 -81.13, -33.11 105.25 0.49 3
6 04/11/2021 05:39:53 81.15, 134.91 74.79 04/11/2021 05:41:04 81.16, 134.97 74.83 1.06 71
7 04/13/2021 23:35:15 81.11,-134.65 73.71 04/13/2021 23:34:06 81.11,-134.74 73.67 1.54 69
8 04/14/2021 00:24:41 -81.13, 33.38 106.25 04/14/2021 00:24:45 -81.13, 33.19 106.27 3.30 4
9 04/16/2021 19:09:28 81.13, -67.86 72.78 04/16/2021 19:08:25 81.13, -67.72 72.77 2.49 63



Historial Predications of SNOs between LANDSAT-8 and METOP-B
